• In Uzbekistan
  • List of Countries
  • For 7 days
  • Water Temperature
  • Satellite Maps
  • Weather Map
  • Weather Widgets
  • user-avatar
    Login

    Hourly Weather Bayki

    Today, 25 May, Friday

    Time Temperature Precipitation Wind Pressure Humidity
    00:00 +14°C° 0 mm 2 mps 744 mmHg 88%
    01:00 +13°C° 0 mm 2 mps 744 mmHg 89%
    02:00 +13°C° 0.2 mm 2 mps 744 mmHg 88%
    03:00 +12°C° 0.2 mm 2 mps 744 mmHg 87%
    04:00 +11°C° 0 mm 3 mps 744 mmHg 88%
    05:00 +10°C° 0.4 mm 3 mps 744 mmHg 88%
    06:00 +9°C° 0.4 mm 3 mps 744 mmHg 88%
    07:00 +9°C° 0.4 mm 3 mps 744 mmHg 88%
    08:00 +9°C° 0.1 mm 3 mps 744 mmHg 82%
    09:00 +10°C° 0.1 mm 3 mps 744 mmHg 77%
    10:00 +10°C° 0.1 mm 3 mps 744 mmHg 71%
    11:00 +12°C° 0 mm 3 mps 744 mmHg 62%
    12:00 +13°C° 0 mm 3 mps 744 mmHg 54%
    13:00 +14°C° 0 mm 4 mps 743 mmHg 45%
    14:00 +14°C° 0 mm 4 mps 744 mmHg 44%
    15:00 +14°C° 0 mm 5 mps 744 mmHg 42%
    16:00 +13°C° 0 mm 5 mps 744 mmHg 41%
    17:00 +12°C° 0 mm 5 mps 744 mmHg 44%
    18:00 +10°C° 0 mm 5 mps 744 mmHg 46%
    19:00 +9°C° 0 mm 5 mps 744 mmHg 49%
    20:00 +8°C° 0 mm 4 mps 745 mmHg 51%
    21:00 +7°C° 0 mm 4 mps 745 mmHg 53%
    22:00 +6°C° 0 mm 4 mps 745 mmHg 55%
    23:00 +6°C° 0 mm 4 mps 746 mmHg 56%

    Tomorrow, 26 May, Saturday

    Time Temperature Precipitation Wind Pressure Humidity
    00:00 +5°C° 0 mm 4 mps 746 mmHg 57%
    01:00 +5°C° 0 mm 4 mps 746 mmHg 58%
    02:00 +4°C° 0 mm 4 mps 747 mmHg 60%
    03:00 +4°C° 0 mm 4 mps 747 mmHg 62%
    04:00 +2°C° 0 mm 5 mps 748 mmHg 63%
    05:00 +2°C° 0 mm 5 mps 748 mmHg 61%
    06:00 +3°C° 0 mm 5 mps 749 mmHg 58%
    07:00 +5°C° 0 mm 5 mps 749 mmHg 56%
    08:00 +6°C° 0 mm 5 mps 749 mmHg 51%
    09:00 +7°C° 0 mm 6 mps 750 mmHg 46%
    10:00 +9°C° 0 mm 6 mps 750 mmHg 41%
    11:00 +9°C° 0 mm 6 mps 750 mmHg 39%
    12:00 +10°C° 0 mm 6 mps 751 mmHg 37%
    13:00 +10°C° 0 mm 6 mps 751 mmHg 35%
    14:00 +11°C° 0 mm 6 mps 751 mmHg 35%
    15:00 +11°C° 0 mm 6 mps 751 mmHg 35%
    16:00 +11°C° 0 mm 6 mps 751 mmHg 35%
    17:00 +12°C° 0 mm 5 mps 751 mmHg 39%
    18:00 +11°C° 0 mm 4 mps 751 mmHg 43%
    19:00 +10°C° 0 mm 3 mps 751 mmHg 46%
    20:00 +9°C° 0 mm 3 mps 752 mmHg 51%
    21:00 +7°C° 0 mm 2 mps 752 mmHg 56%
    22:00 +5°C° 0 mm 2 mps 752 mmHg 60%
    23:00 +6°C° 0 mm 1 mps 752 mmHg 62%

    Day after tomorrow, 27 May, Sunday

    Time Temperature Precipitation Wind Pressure Humidity
    00:00 +5°C° 0 mm 1 mps 752 mmHg 64%
    01:00 +5°C° 0 mm 1 mps 753 mmHg 66%
    02:00 +5°C° 0 mm 1 mps 752 mmHg 68%
    03:00 +4°C° 0 mm 1 mps 752 mmHg 69%
    04:00 +3°C° 0 mm 2 mps 752 mmHg 70%
    05:00 +5°C° 0 mm 2 mps 752 mmHg 66%
    06:00 +7°C° 0 mm 3 mps 751 mmHg 62%
    07:00 +8°C° 0 mm 4 mps 751 mmHg 58%
    08:00 +9°C° 0 mm 5 mps 750 mmHg 56%
    09:00 +11°C° 0 mm 6 mps 750 mmHg 54%
    10:00 +12°C° 0 mm 7 mps 749 mmHg 52%
    11:00 +15°C° 0 mm 7 mps 748 mmHg 53%
    12:00 +16°C° 0 mm 7 mps 747 mmHg 53%
    13:00 +18°C° 0 mm 7 mps 746 mmHg 53%
    14:00 +18°C° 0.4 mm 7 mps 746 mmHg 58%
    15:00 +18°C° 0.4 mm 8 mps 745 mmHg 63%
    16:00 +17°C° 0.4 mm 8 mps 744 mmHg 68%
    17:00 +16°C° 1.2 mm 7 mps 743 mmHg 74%
    18:00 +15°C° 1.2 mm 6 mps 743 mmHg 81%
    19:00 +14°C° 1.2 mm 6 mps 742 mmHg 87%
    20:00 +14°C° 1.1 mm 5 mps 742 mmHg 90%
    21:00 +13°C° 1.1 mm 5 mps 741 mmHg 93%
    22:00 +13°C° 1.1 mm 4 mps 741 mmHg 95%
    23:00 +12°C° 1 mm 5 mps 740 mmHg 95%

    28 May, Monday

    Time Temperature Precipitation Wind Pressure Humidity
    00:00 +12°C° 1 mm 5 mps 739 mmHg 95%
    01:00 +12°C° 1 mm 5 mps 738 mmHg 95%
    02:00 +10°C° 2.3 mm 5 mps 738 mmHg 94%
    03:00 +8°C° 2.3 mm 5 mps 737 mmHg 93%
    04:00 +6°C° 2.3 mm 5 mps 737 mmHg 91%
    05:00 +6°C° 0.7 mm 5 mps 738 mmHg 91%
    06:00 +6°C° 0.7 mm 5 mps 738 mmHg 91%
    07:00 +6°C° 0.7 mm 4 mps 739 mmHg 91%
    08:00 +7°C° 0.3 mm 5 mps 739 mmHg 84%
    09:00 +7°C° 0.3 mm 6 mps 740 mmHg 78%
    10:00 +8°C° 0.3 mm 6 mps 741 mmHg 71%
    11:00 +9°C° 0.1 mm 6 mps 741 mmHg 64%
    12:00 +9°C° 0.1 mm 7 mps 741 mmHg 56%
    13:00 +10°C° 0.1 mm 7 mps 742 mmHg 48%
    14:00 +9°C° 0.1 mm 7 mps 742 mmHg 49%
    15:00 +9°C° 0.1 mm 7 mps 742 mmHg 50%
    16:00 +8°C° 0.1 mm 6 mps 742 mmHg 52%
    17:00 +8°C° 0.2 mm 6 mps 743 mmHg 56%
    18:00 +7°C° 0.2 mm 5 mps 743 mmHg 60%
    19:00 +6°C° 0.2 mm 4 mps 743 mmHg 65%
    20:00 +5°C° 0 mm 4 mps 744 mmHg 68%
    21:00 +4°C° 0 mm 3 mps 744 mmHg 72%
    22:00 +3°C° 0 mm 3 mps 744 mmHg 75%
    23:00 +2°C° 0 mm 3 mps 744 mmHg 77%

    29 May, Tuesday

    Time Temperature Precipitation Wind Pressure Humidity
    00:00 +2°C° 0 mm 3 mps 744 mmHg 78%
    01:00 +1°C° 0 mm 3 mps 744 mmHg 79%
    02:00 +1°C° 0 mm 3 mps 744 mmHg 81%
    03:00 0°C° 0 mm 3 mps 745 mmHg 83%
    04:00 0°C° 0 mm 3 mps 745 mmHg 84%
    05:00 +1°C° 0 mm 3 mps 745 mmHg 79%
    06:00 +3°C° 0 mm 4 mps 745 mmHg 73%
    07:00 +4°C° 0 mm 4 mps 745 mmHg 67%
    08:00 +5°C° 0.2 mm 4 mps 744 mmHg 63%
    09:00 +6°C° 0.2 mm 5 mps 744 mmHg 60%
    10:00 +6°C° 0.2 mm 5 mps 744 mmHg 56%
    11:00 +7°C° 0.3 mm 5 mps 744 mmHg 56%
    12:00 +7°C° 0.3 mm 5 mps 744 mmHg 56%
    13:00 +7°C° 0.3 mm 5 mps 743 mmHg 57%
    14:00 +7°C° 0.3 mm 5 mps 744 mmHg 57%
    15:00 +8°C° 0.3 mm 5 mps 744 mmHg 57%
    16:00 +8°C° 0.3 mm 5 mps 744 mmHg 57%
    17:00 +7°C° 0.1 mm 5 mps 744 mmHg 58%
    18:00 +7°C° 0.1 mm 4 mps 744 mmHg 59%
    19:00 +7°C° 0.1 mm 3 mps 744 mmHg 60%
    20:00 +5°C° 0 mm 3 mps 744 mmHg 65%
    21:00 +3°C° 0 mm 3 mps 745 mmHg 70%
    22:00 +2°C° 0 mm 2 mps 745 mmHg 75%
    23:00 +2°C° 0 mm 2 mps 745 mmHg 78%

    30 May, Wednesday

    Time Temperature Precipitation Wind Pressure Humidity
    00:00 +1°C° 0 mm 2 mps 745 mmHg 80%
    01:00 -1°C° 0 mm 2 mps 744 mmHg 83%
    02:00 +1°C° 0 mm 1 mps 744 mmHg 84%
    03:00 +1°C° 0 mm 1 mps 744 mmHg 84%
    04:00 0°C° 0 mm 1 mps 744 mmHg 85%
    05:00 +2°C° 0 mm 1 mps 744 mmHg 76%
    06:00 +4°C° 0 mm 1 mps 744 mmHg 67%
    07:00 +7°C° 0 mm 1 mps 743 mmHg 58%
    08:00 +7°C° 0 mm 2 mps 743 mmHg 56%
    09:00 +8°C° 0 mm 3 mps 742 mmHg 53%
    10:00 +10°C° 0 mm 4 mps 741 mmHg 50%
    11:00 +8°C° 0.5 mm 4 mps 740 mmHg 58%
    12:00 +7°C° 0.5 mm 5 mps 739 mmHg 67%
    13:00 +6°C° 0.5 mm 5 mps 738 mmHg 75%
    14:00 +5°C° 1.7 mm 6 mps 737 mmHg 81%
    15:00 +4°C° 1.7 mm 6 mps 736 mmHg 86%
    16:00 +3°C° 1.7 mm 6 mps 735 mmHg 92%
    17:00 +3°C° 1.1 mm 6 mps 734 mmHg 93%
    18:00 +5°C° 1.1 mm 5 mps 732 mmHg 94%
    19:00 +5°C° 1.1 mm 5 mps 731 mmHg 95%
    20:00 +5°C° 0.2 mm 4 mps 730 mmHg 96%
    21:00 +5°C° 0.2 mm 3 mps 729 mmHg 97%
    22:00 +7°C° 0.2 mm 2 mps 729 mmHg 98%
    23:00 +7°C° 0.5 mm 3 mps 729 mmHg 97%
    Show more